Regional Weather Roundup
Issued by NWS Lake Charles, LA

Home | Current Version | Previous Version | Text Only | Print | Product List | Glossary On
Versions: 1 2 3 4 5 6 7 8 9 10 11 12 13 14 15 16 17 18 19 20 21 22 23 24 25 26 27 28 29
000
ASUS44 KLCH 290310
RWRLCH
REGIONAL WEATHER ROUNDUP
NATIONAL WEATHER SERVICE LAKE CHARLES LA
1000 PM CDT TUE MAR 28 2017

Note: "fair" indicates few or no clouds below 12,000 feet with no
significant weather and/or obstructions to visibility.


ACROSS SOUTHEAST TEXAS

CITY           SKY/WX    TMP DP  RH WIND       PRES   REMARKS
BEAUMONT       CLOUDY    74  69  85 SE21      29.83R
BEAUMONT CITY  CLOUDY   N/A N/A N/A SE13G21   29.84R
ORANGE         CLOUDY    74  70  89 SE13      29.86R
JASPER         MOCLDY    73  68  84 SE5       29.86R
$$

ACROSS CENTRAL LOUISIANA

CITY           SKY/WX    TMP DP  RH WIND       PRES   REMARKS
LEESVILLE      CLEAR     71  46  41 SE15      29.86R
FULLERTON      FAIR      71  64  78 VRB3      29.85R
ALEXANDRIA INT LGT RAIN  71  63  75 S12       29.86R
ESLER FIELD    CLEAR     71  61  70 SE5       29.88R
DERIDDER       FAIR      71  68  88 SE8       29.88R
OAKDALE        CLEAR     70  66  87 SE5       29.88S
OPELOUSAS      FAIR      71  66  84 MISG      29.91R
$$

ACROSS SOUTHWEST AND SOUTH CENTRAL LOUISIANA

CITY           SKY/WX    TMP DP  RH WIND       PRES   REMARKS
SULPHUR        CLOUDY    74  69  83 SE14      29.87R
LAKE CHARLES   MOCLDY    72  68  87 SE14      29.86S
CHENNAULT INT  MOCLDY    72  68  88 SE16      29.87S
CAMERON PHI    PTCLDY    73  72  94 SE20G29   29.85R
DEQUINCY       MOCLDY    71  66  83 SE9       29.86S
JENNINGS       CLOUDY    71  67  87 SE12G18   29.88F
LAFAYETTE      PTCLDY    74  69  85 VRB6      29.91R
NEW IBERIA     CLOUDY    71  66  84 SE14      29.92R
ABBEVILLE      MOCLDY    72  72 100 SE8G18    29.90F
PATTERSON      PTCLDY    71  68  90 SE8       29.94R
SALT POINT       N/A     71  68  90 SE8       29.92R
$$

SELECTED SITES ACROSS THE REGION

CITY           SKY/WX    TMP DP  RH WIND       PRES   REMARKS
HOUSTON BUSH   MOCLDY    76  68  76 SE23G31   29.78S
HOUSTON HOBBY  CLOUDY    75  69  81 SE18G30   29.78S
GALVESTON      PTCLDY    75  72  90 SE21G28   29.82R
COLLEGE STAT   CLOUDY    75  68  78 SE20G28   29.73R
CONROE         CLOUDY    74  68  81 SE16G26   29.77S
HUNTSVILLE     CLOUDY    75  66  73 SE9G18    29.75F
LUFKIN         CLOUDY    72  65  78 SE13G26   29.79F
SHREVEPORT     PTCLDY    75  61  61 SE13      29.81R
MONROE         CLEAR     75  63  66 SE3       29.87R
NATCHEZ MS     NOT AVBL
BATON ROUGE    CLEAR     74  64  71 SE8       29.92S
N.O. INTL ARPT PTCLDY    72  67  84 SE9       29.95S
SLIDELL        PTCLDY    72  68  87 SE8       29.95S
$$

MARINE REPORTS

STATION/POSITION TIME  SKY/WX   TEMP    WIND        PRES    VSBY
                                AIR SEA DIR/SP/G
                 (UTC)          (F)     (DEG/KT/KT) (MB)    (MI)
BUOY 30 S HIGH I 0150            74 72  140/ 19/ 25 1008.9
WVE H/P(F/S)=  5/ 6

SEA RIM ST PARK  0300            73     150/ 17/ 22 1011.0R
PORT ARTHUR      0242               74  150/ 14/ 20 1010.6R
SABINE PASS N    0248            74 76  140/ 21/ 25 1011.6R
TEXAS POINT      NOT AVBL
CALCASIEU PASS   0248            73 76  160/ 20/ 26   N/A
LK CHARLES BEACH 0248            73 71              1011.5S
MARSH ISLAND     0200            73                   N/A
FRESH WATER LOCK 0248            73 78  130/ 14/ 19 1012.1F
AMERADA PASS     0248            72 70  140/  5/ 11 1013.5R
$$




USA.gov is the U.S. government's official web portal to all federal, state and local government web resources and services.